Probability
0 0 0 0 0 0 0 0 0 0 0 0 0 0 0 0 0 0 0 0 0 0 0 0 0 0 0 0 0 0 0 0 0 0 0 0 0 0 0 0 0 0 0 0
0 0 0 0 0 0 0 0 0 0 0 0 0 0 0 0 0 0 0 0 0 0 0 0 0 0 0 0 0 0 0 0 0 0 0 0 0 0 0 0 0 0 0 0
0 0 0 0 0 0 0 0 0 0 0 0 0 0 0 0 0 0 0 0 0 0 0 0 0 0 0 0 0 0 0 0 0 0 0 0 0 0 0 0 0 0 0 0
0 0 0 0 0 0 0 0 0 0 0 0 0 0 0 0 0 0 0 0 0 0 0 0 0 0 0 0 0 0 0 0 0 0 0 0 0 0 0 0 0 0 0 0
0 0 0 0 0 0 0 0 0 0 0 0 0 0 0 0 0 0 0 0 0 0 0 0 0 0 0 0 0 0 0 0 0 0 0 0 0 0 0 0 0 0 0 0
0 0 0 0 0 0 0 0 0 0 0 0 0 0 0 0 0 0 0 0 0 0 0 0 0 0 0 0 0 0 0 0 0 0 0 0 0 0 0 0 0 0 0 0
0 0 0 0 0 0 0 0 0 0 0 0 0 0 0 0 0 0 0 0 0 0 0 0 0 0 0 0 0 0 0 0 0 0 0 0 0 0 0 0 0 0 0 0
0 0 0 0 0 0 0 0 0 0 0 0 0 0 0 0 0 0 0 0 0 0 0 0 0 0 0 0 0 0 0 0 0 0 0 0 0 0 0 0 0 0 0 0
0 0 0 0 0 0 0 0 0 0 0 0 0 0 0 0 0 0 0 0 0 0 0 0 0 0 0 0 0 0 0 0 0 0 0 0 0 0 0 0 0 0 0 0
0 0 0 0 0 0 0 0 0 0 0 0 0 0 0 0 0 0 0 0 0 0 0 0 0 0 0 0 0 0 0 0 0 0 0 0 0 0 0 0 0 0 0 0
0 0 0 0 0 0 0 0 0 0 0 0 0 0 0 0 0 0 0 0 0 0 0 0 0 0 0 0 0 0 0 0 0 0 0 0 0 0 0 0 0 0 0 0
0 0 0 0 0 0 0 0 0 0 0 0 0 0 0 0 0 0 0 0 0 0 0 0 0 0 0 0 0 0 0 0 0 0 0 0 0 0 0 0 0 0 0 0
0 0 0 0 0 0 0 0 0 0 0 0 0 0 0 0 0 0 0 0 0 0 0 0 0 0 0 0 0 0 0 0 0 0 0 0 0 0 0 0 0 0 0 0
0 0 0 0 0 0 0 0 0 0 0 0 0 0 0 0 0 0 0 0 0 0 0 0 0 0 0 0 0 0 0 0 0 0 0 0 0 0 0 0 0 0 0 0
0 0 0 0 0 0 0 0 0 0 0 0 0 0 0 0 0 0 0 0 0 0 0 0 0 0 0 0 0 0 0 0 0 0 0 0 0 0 0 0 0 0 0 0
0 0 0 0 0 0 0 0 0 0 0 0 0 0 0 0 0 0 0 0 0 0 0 0 0 0 0 0 0 0 0 0 0 0 0 0 0 0 0 0 0 0 0 0
0 0 0 0 0 0 0 0 0 0 0 0 0 0 0 0 0 0 0 0 0 0 0 0 0 0 0 0 0 0 0 0 0 0 0 0 0 0 0 0 0 0 0 0
0 0 0 0 0 0 0 0 0 0 0 0 0 0 0 0 0 0 0 0 0 0 0 0 0 0 0 0 0 0 0 0 0 0 0 0 0 0 0 0 0 0 0 0
0 0 0 0 0 0 0 0 0 0 0 0 0 0 0 0 0 0 0 0 0 0 0 0 0 0 0 0 0 0 0 0 0 0 0 0 0 0 0 0 0 0 0 0
0 0 0 0 0 0 0 0 0 0 0 0 0 0 0 0 0 0 0 0 0 0 0 0 0 0 0 0 0 0 0 0 0 0 0 0 0 0 0 0 0 0 0 0
0 0 0 0 0 0 0 0 0 0 0 0 0 0 0 0 0 0 0 0 0 0 0 0 0 0 0 0 0 0 0 0 0 0 0 0 0 0 0 0 0 0 0 0
0 0 0 0 0 0 0 0 0 0 0 0 0 0 0 0 0 0 0 0 0 0 0 0 0 0 0 0 0 0 0 0 0 0 0 0 0 0 0 0 0 0 0 0
0 0 0 0 0 0 0 0 0 0 0 0 0 0 0 0 0 0 0 0 0 0 0 0 0 0 0 0 0 0 0 0 0 0 0 0 0 0 0 0 0 0 0 0
0 0 0 0 0 0 0 0 0 0 0 0 0 0 0 0 0 0 0 0 0 0 0 0 0 0 0 0 0 0 0 0 0 0 0 0 0 0 0 0 0 0 0 0
0 0 0 0 0 0 0 0 0 0 0 0 0 0 0 0 0 0 0 0 0 0 0 0 0 0 0 0 0 0 0 0 0 0 0 0 0 0 0 0 0 0 0 0
0 0 0 0 0 0 0 0 0 0 0 0 0 0 0 0 0 0 0 0 0 0 0 0 0 0 0 0 0 0 0 0 0 0 0 0 0 0 0 0 0 0 0 0
Wind_Speed
5 7 3 1 2 3 3 2 3 3 3 5 5 6 8 5 7 7 6 6 5 4 4 4 3 4 5 7 7 7 7 8 7 7 8 9 9 8 7 7 9 10 11 12
7 4 3 3 2 1 1 3 2 1 1 1 2 4 5 4 6 7 8 7 5 4 4 3 3 5 6 5 6 6 6 7 7 6 5 6 7 5 6 6 7 8 10 11
5 1 3 3 6 5 4 2 2 3 2 1 3 1 3 1 3 4 5 5 4 5 4 2 3 4 3 4 5 7 6 7 7 7 5 7 5 5 5 6 6 8 10 10
4 4 4 5 4 2 1 2 2 3 3 2 3 3 5 5 4 4 4 4 4 4 3 2 2 2 2 3 4 5 6 7 7 7 7 9 10 8 8 7 7 9 9 9
2 3 4 3 1 0 2 1 2 2 2 1 1 2 3 4 6 5 5 4 4 4 3 2 1 1 2 4 5 5 6 6 7 7 7 8 8 7 8 9 9 8 7 8
1 1 1 1 3 1 1 3 2 4 3 3 4 5 5 6 7 6 5 5 4 4 2 1 2 3 4 5 6 6 7 7 7 7 7 8 9 10 12 12 10 9 7 6
2 2 2 2 3 5 5 5 5 6 4 5 1 4 5 4 4 7 8 6 5 3 1 3 5 5 6 7 7 7 7 7 8 8 8 9 9 9 11 12 11 11 9 9
0 4 2 2 1 1 2 3 4 2 5 7 3 3 4 4 2 6 7 6 4 2 3 4 4 5 6 7 7 7 8 8 9 9 9 9 8 8 8 10 11 11 10 10
1 4 1 0 0 1 1 1 3 4 2 4 6 4 4 3 3 5 5 5 4 3 4 4 4 5 6 6 7 7 8 9 10 10 10 9 9 10 10 11 10 9 10 12
1 4 4 1 1 1 1 3 4 2 2 5 8 6 6 9 9 7 5 5 3 2 3 4 4 5 5 5 6 7 7 8 9 10 9 11 10 11 11 11 12 12 12 13
1 1 5 2 2 1 0 1 2 2 3 3 6 9 4 10 9 8 7 5 5 3 2 3 4 4 5 6 6 6 7 8 9 9 9 10 10 11 11 11 12 12 12 13
2 2 4 5 2 1 1 2 4 2 3 3 4 9 1 6 7 8 7 6 5 4 2 1 3 4 5 6 7 7 8 9 10 9 10 11 11 12 12 12 13 13 13 13
1 3 4 6 3 1 1 2 3 4 2 3 4 8 3 4 5 7 8 6 4 3 1 2 3 5 6 7 7 8 8 9 10 10 11 11 12 12 12 13 13 13 13 13
3 2 4 6 6 3 3 3 4 5 3 5 9 8 4 6 7 7 6 6 4 2 0 2 4 5 6 7 7 8 9 9 10 11 11 11 12 12 12 13 13 13 13 13
3 2 4 7 5 4 6 7 7 8 8 9 10 7 8 11 11 9 7 6 4 2 1 3 4 5 6 7 7 8 9 10 10 11 11 12 12 12 12 12 12 12 12 14
2 1 3 6 3 4 6 8 7 8 7 9 9 10 2 7 7 7 7 6 4 2 1 3 4 5 6 6 7 8 9 10 10 10 11 12 12 12 12 11 11 12 13 13
2 1 2 6 7 7 8 6 8 7 8 9 9 7 8 6 10 10 8 6 5 3 1 2 3 4 5 6 6 8 9 9 9 9 10 11 11 12 11 12 12 12 12 12
4 3 2 3 8 5 6 2 5 7 8 8 6 6 10 7 6 5 6 7 6 3 2 1 2 4 4 5 6 7 7 8 8 9 10 10 10 11 11 10 11 10 9 10
2 5 3 1 3 11 9 4 5 5 9 7 8 7 8 10 6 2 4 6 6 4 3 1 1 2 4 5 6 7 7 7 8 9 10 10 10 10 10 10 10 8 8 8
4 4 4 3 2 8 7 2 2 3 8 5 10 12 12 11 4 6 8 7 6 5 3 2 1 2 4 5 6 6 7 7 8 10 10 10 10 10 9 10 9 7 7 9
2 2 3 5 6 14 6 4 4 3 9 5 11 12 15 11 6 7 10 7 6 5 4 2 2 2 4 5 5 6 6 8 9 9 9 9 9 9 8 8 7 8 9 9
8 7 6 5 4 14 6 9 11 11 3 6 8 9 9 7 9 11 10 8 7 5 3 2 2 2 4 5 5 5 6 7 8 8 8 8 8 8 9 8 8 7 7 6
9 11 9 13 13 6 10 11 7 6 7 7 8 7 11 11 9 9 8 8 6 5 4 2 1 2 4 4 4 4 6 7 7 7 8 7 8 7 7 7 7 7 6 5
6 5 5 8 14 8 10 7 5 6 7 7 8 10 11 11 10 9 9 8 6 5 4 2 1 2 3 5 5 4 6 6 6 7 7 7 6 7 6 6 6 6 6 5
8 7 5 9 11 6 7 10 9 7 7 8 8 8 11 14 11 10 9 8 7 5 4 3 1 1 3 4 5 5 6 6 6 6 7 7 7 6 6 6 6 7 5 9
9 12 11 12 11 9 8 8 12 11 11 12 11 9 8 11 12 11 9 7 6 5 4 3 2 2 2 3 4 5 5 5 5 6 6 5 5 5 6 6 7 12 13 16
Wind_Direction
28 64 63 269 235 225 221 178 178 207 184 175 181 167 189 164 133 145 153 154 150 139 121 104 76 58 42 26 13 3 351 344 346 350 351 348 346 342 341 341 341 342 342 341
45 49 274 287 329 30 104 114 139 209 207 167 137 169 182 161 162 168 163 163 153 124 106 96 57 44 35 15 354 353 346 340 344 342 334 331 325 320 327 322 327 334 338 338
111 274 312 63 40 46 52 105 181 202 183 100 113 90 173 175 149 139 140 150 139 118 110 88 49 44 18 353 343 356 342 338 337 334 333 336 324 318 329 329 332 334 333 332
69 0 42 65 50 48 259 209 191 157 148 257 174 273 201 194 185 160 151 137 120 108 119 103 58 33 354 333 339 345 338 333 331 334 340 343 344 335 331 328 323 323 323 325
33 15 42 42 332 303 262 252 224 172 168 318 229 225 268 171 204 200 185 163 143 140 138 105 79 38 5 350 347 338 333 328 328 331 333 332 329 321 322 325 322 320 317 319
63 5 69 298 295 265 315 37 66 56 74 300 217 180 246 206 212 181 175 170 162 160 137 95 45 23 1 351 343 335 332 327 328 331 330 327 325 324 328 330 326 327 323 319
358 337 356 4 356 8 42 53 20 355 357 271 176 181 248 227 206 168 168 175 172 157 113 47 28 8 352 345 338 333 333 332 333 334 333 327 326 323 324 327 327 327 326 325
294 295 309 15 78 325 341 116 129 261 266 291 329 252 253 233 174 137 147 156 152 122 71 49 27 2 347 340 337 336 338 338 339 341 338 330 332 330 328 327 327 325 324 320
108 278 291 246 14 144 62 114 163 153 290 286 282 281 286 236 180 152 152 145 136 99 67 46 16 1 348 341 339 338 342 343 344 343 338 338 338 332 329 326 323 322 320 320
141 294 296 289 3 264 163 151 93 122 294 293 292 273 237 206 207 185 173 160 146 109 66 36 8 352 341 337 334 339 346 343 338 338 338 341 331 327 324 322 321 319 318 317
113 221 306 330 237 264 207 193 139 136 174 213 286 275 223 191 182 176 176 165 156 127 80 20 348 338 335 336 339 344 346 341 338 334 330 327 323 322 320 319 317 316 314 316
61 120 283 269 217 175 241 211 152 178 266 207 242 275 76 151 152 151 155 156 150 124 96 3 339 336 340 343 345 347 343 338 334 330 328 326 322 321 320 318 317 316 316 316
68 116 344 344 337 234 218 201 155 130 129 208 231 266 108 118 128 142 149 153 146 131 94 344 342 344 344 345 346 344 339 335 332 332 331 326 324 323 322 320 319 320 320 319
106 151 192 234 255 262 241 214 176 146 194 236 235 251 194 183 163 159 159 159 157 160 74 350 347 345 343 343 342 339 336 334 336 335 331 329 327 326 324 322 323 324 325 326
110 228 258 262 278 268 243 230 204 196 202 217 244 241 227 193 177 170 166 166 169 176 5 2 355 345 342 343 340 336 333 334 335 333 333 331 328 327 327 328 329 331 334 338
110 234 321 295 325 310 267 246 223 223 220 236 258 263 198 129 128 149 167 173 178 181 40 6 355 347 343 340 335 333 330 331 332 331 330 329 333 333 333 335 338 340 341 339
142 70 6 292 318 339 296 241 194 214 217 206 227 230 144 151 169 174 178 180 177 163 96 11 346 334 331 329 327 327 326 326 330 329 328 332 334 335 336 340 343 342 340 340
140 116 109 314 352 298 255 184 196 222 245 218 216 173 169 156 143 149 165 170 172 158 134 353 333 328 326 322 323 322 323 327 328 329 331 334 337 336 337 340 342 339 336 340
111 136 121 93 298 280 292 231 201 213 272 210 181 150 123 117 101 176 188 170 169 159 150 161 322 315 320 325 326 328 329 330 332 336 337 337 338 339 341 345 342 336 334 337
60 89 122 140 239 259 258 169 127 81 279 212 162 155 153 148 167 220 178 163 155 145 135 121 35 347 339 329 331 336 334 338 341 339 336 336 341 339 340 341 336 334 334 344
119 101 160 184 235 265 250 153 127 196 259 172 160 160 164 183 187 152 147 152 151 142 132 111 70 8 328 322 334 342 337 340 333 332 334 338 340 336 342 337 332 333 341 342
177 172 194 162 215 259 192 148 191 217 148 147 154 153 152 142 125 136 147 152 150 144 136 115 68 359 325 327 341 342 337 326 327 331 336 336 336 341 350 333 331 333 335 334
198 193 185 192 221 236 176 199 207 156 162 166 154 146 136 139 150 154 155 156 154 153 151 137 86 352 329 332 337 335 321 323 331 334 334 329 333 335 336 329 330 333 336 335
245 183 196 248 262 246 220 228 197 179 172 161 147 146 149 151 156 158 158 160 160 160 159 160 103 13 335 326 329 317 313 324 331 332 328 328 333 334 331 335 338 337 335 336
224 177 216 255 270 286 253 217 190 165 143 135 134 146 153 148 155 162 163 166 167 163 163 167 164 282 305 316 319 318 320 326 331 327 324 327 337 330 329 337 335 339 327 349
197 185 191 230 224 203 233 203 168 158 161 156 145 142 150 156 160 160 163 164 163 166 171 183 207 251 294 311 312 312 315 319 326 330 327 320 325 331 333 327 330 343 350 351